This is the latest recevied weather packets stored in our database for station/object KC9GSD. If no packets are shown the sender has not sent any weather packets the latest 10 day(s).
| Time | Temp. | Humidity | Pressure | Rain* | Wind** | Luminosity | Snow |
|---|---|---|---|---|---|---|---|
| 1777542372 | 13.89° C | 96% | 1011.7 hPa | 4.83 mm | - | 0 W/m² | - |
| 1777542069 | 13.89° C | 96% | 1011.6 hPa | 3.05 mm | - | 0 W/m² | - |
| 1777541766 | 13.89° C | 96% | 1011.3 hPa | 1.27 mm | - | 0 W/m² | - |
| 1777541463 | 13.89° C | 96% | 1011.3 hPa | 3.05 mm | - | 0 W/m² | - |
| 1777541159 | 13.89° C | 96% | 1011.5 hPa | 3.56 mm | - | 0 W/m² | - |
| 1777540856 | 13.89° C | 96% | 1011.4 hPa | 3.05 mm | - | 0 W/m² | - |
| 1777540553 | 13.89° C | 96% | 1011.5 hPa | 4.32 mm | - | 0 W/m² | - |
| 1777540249 | 13.89° C | 96% | 1011.3 hPa | 4.83 mm | - | 0 W/m² | - |
| 1777539944 | 13.89° C | 96% | 1011.4 hPa | 1.78 mm | - | 0 W/m² | - |
| 1777539641 | 13.89° C | 96% | 1011.7 hPa | 0 mm | - | 0 W/m² | - |
| 1777539338 | 13.89° C | 96% | 1011.8 hPa | 0 mm | - | 0 W/m² | - |
| 1777539035 | 13.89° C | 96% | 1011.4 hPa | 1.27 mm | - | 0 W/m² | - |
| 1777538731 | 13.89° C | 96% | 1011.1 hPa | 3.05 mm | - | 0 W/m² | - |
| 1777538426 | 13.89° C | 96% | 1011.2 hPa | 3.05 mm | - | 0 W/m² | - |
| 1777538121 | 13.89° C | 96% | 1011.3 hPa | 3.05 mm | - | 0 W/m² | - |
| 1777537817 | 13.89° C | 96% | 1011.3 hPa | 3.05 mm | - | 0 W/m² | - |
| 1777537514 | 13.89° C | 96% | 1011.3 hPa | 4.32 mm | - | 0 W/m² | - |
| 1777537209 | 13.89° C | 96% | 1011.2 hPa | 6.6 mm | - | 0 W/m² | - |
| 1777536906 | 13.89° C | 96% | 1011.3 hPa | 7.87 mm | - | 0 W/m² | - |
| 1777536604 | 13.89° C | 96% | 1011.7 hPa | 8.89 mm | - | 0 W/m² | - |
| 1777536300 | 13.89° C | 95% | 1012.1 hPa | 11.94 mm | - | 0 W/m² | - |
| 1777535996 | 13.89° C | 95% | 1012 hPa | 12.7 mm | - | 0 W/m² | - |
| 1777535692 | 13.89° C | 95% | 1011.8 hPa | 7.87 mm | - | 0 W/m² | - |
| 1777535389 | 13.89° C | 95% | 1011.6 hPa | 6.1 mm | - | 0 W/m² | - |
| 1777535086 | 13.89° C | 95% | 1011.7 hPa | 4.32 mm | - | 0 W/m² | - |
* Rain latest hour (hover to see other rain measurements)
** Current wind speed in m/s (hover to see current wind gust speed)